�������l�o���
Date,Time,MP-1(��Sv/h),MP-2(��Sv/h),MP-3(��Sv/h),MP-4(��Sv/h),MP-5(��Sv/h),MP-6(��Sv/h),MP-7(��Sv/h),MP-8(��Sv/h),����,����(m/s),���J
2022/10/04,00:00,0.586,0.843,0.538,1.043,0.744,0.341,0.597,0.562,��,8.0,��
2022/10/04,00:10,0.585,0.841,0.536,1.047,0.745,0.342,0.597,0.559,��,8.9,��
2022/10/04,00:20,0.584,0.841,0.537,1.045,0.744,0.340,0.598,0.560,��,8.5,��
2022/10/04,00:30,0.583,0.843,0.538,1.047,0.746,0.341,0.598,0.560,��,8.4,��
2022/10/04,00:40,0.585,0.844,0.538,1.045,0.745,0.341,0.597,0.561,��,8.2,��
2022/10/04,00:50,0.584,0.843,0.537,1.047,0.745,0.341,0.596,0.561,��,7.7,��
2022/10/04,01:00,0.584,0.842,0.537,1.046,0.746,0.341,0.597,0.560,��,6.8,��
2022/10/04,01:10,0.585,0.842,0.538,1.046,0.743,0.342,0.598,0.560,��,4.9,��
2022/10/04,01:20,0.584,0.842,0.538,1.045,0.743,0.341,0.598,0.561,��,4.4,��
2022/10/04,01:30,0.587,0.844,0.537,1.045,0.745,0.341,0.596,0.559,��쐼,4.1,��
2022/10/04,01:40,0.585,0.843,0.539,1.046,0.745,0.341,0.597,0.561,��쐼,4.7,��
2022/10/04,01:50,0.585,0.843,0.538,1.045,0.745,0.340,0.597,0.562,��쐼,4.2,��
2022/10/04,02:00,0.586,0.845,0.539,1.044,0.746,0.340,0.596,0.563,��쐼,5.0,��
2022/10/04,02:10,0.585,0.843,0.538,1.046,0.744,0.342,0.598,0.560,��,5.3,��
2022/10/04,02:20,0.584,0.842,0.540,1.045,0.746,0.342,0.595,0.562,��,5.8,��
2022/10/04,02:30,0.584,0.844,0.538,1.046,0.743,0.341,0.598,0.562,��,7.8,��
2022/10/04,02:40,0.584,0.844,0.539,1.046,0.744,0.340,0.597,0.560,��,7.7,��
2022/10/04,02:50,0.585,0.843,0.538,1.045,0.747,0.341,0.598,0.562,��,7.5,��
2022/10/04,03:00,0.583,0.842,0.539,1.044,0.746,0.341,0.596,0.562,��,7.8,��
2022/10/04,03:10,0.585,0.843,0.539,1.047,0.746,0.341,0.596,0.560,��,7.1,��
2022/10/04,03:20,0.585,0.845,0.538,1.045,0.744,0.342,0.597,0.561,��쐼,7.5,��
2022/10/04,03:30,0.584,0.843,0.537,1.047,0.745,0.342,0.597,0.560,��쐼,6.8,��
2022/10/04,03:40,0.584,0.842,0.538,1.046,0.744,0.342,0.598,0.561,��쐼,6.9,��
2022/10/04,03:50,0.585,0.843,0.538,1.045,0.745,0.341,0.598,0.561,��쐼,6.3,��
2022/10/04,04:00,0.584,0.844,0.538,1.045,0.745,0.339,0.598,0.560,��쐼,7.5,��
2022/10/04,04:10,0.582,0.843,0.540,1.046,0.746,0.341,0.597,0.561,��쐼,7.6,��
2022/10/04,04:20,0.583,0.843,0.539,1.045,0.745,0.340,0.598,0.561,��쐼,8.9,��
2022/10/04,04:30,0.584,0.845,0.539,1.046,0.746,0.341,0.594,0.562,��쐼,7.3,��
2022/10/04,04:40,0.584,0.846,0.539,1.046,0.743,0.340,0.597,0.561,��쐼,7.4,��
2022/10/04,04:50,0.583,0.844,0.538,1.045,0.746,0.339,0.598,0.562,��쐼,7.7,��
2022/10/04,05:00,0.583,0.843,0.540,1.045,0.746,0.341,0.596,0.561,��쐼,8.3,��
2022/10/04,05:10,0.583,0.846,0.540,1.046,0.746,0.339,0.597,0.560,��쐼,7.1,��
2022/10/04,05:20,0.583,0.841,0.536,1.048,0.744,0.341,0.595,0.560,��쐼,6.2,��
2022/10/04,05:30,0.584,0.844,0.539,1.046,0.746,0.340,0.596,0.561,��쐼,6.3,�L
2022/10/04,05:40,0.583,0.844,0.539,1.046,0.746,0.340,0.596,0.562,��쐼,8.0,��
2022/10/04,05:50,0.585,0.843,0.538,1.047,0.745,0.341,0.597,0.563,��쐼,7.2,��
2022/10/04,06:00,0.584,0.844,0.539,1.046,0.745,0.339,0.598,0.562,��쐼,7.0,��
2022/10/04,06:10,0.584,0.843,0.538,1.046,0.745,0.340,0.598,0.561,��,7.3,��
2022/10/04,06:20,0.582,0.842,0.538,1.047,0.745,0.340,0.598,0.562,��,5.8,��
2022/10/04,06:30,0.584,0.842,0.538,1.044,0.744,0.341,0.596,0.561,��쓌,7.5,��
2022/10/04,06:40,0.585,0.842,0.538,1.046,0.746,0.339,0.597,0.562,��,7.9,��
2022/10/04,06:50,0.584,0.843,0.539,1.047,0.745,0.338,0.596,0.562,��,7.8,��
2022/10/04,07:00,0.583,0.840,0.538,1.047,0.745,0.340,0.597,0.563,��,7.6,��
2022/10/04,07:10,0.585,0.841,0.538,1.047,0.746,0.338,0.596,0.559,��쐼,5.5,��
2022/10/04,07:20,0.585,0.842,0.538,1.046,0.745,0.339,0.597,0.561,��,5.2,��
2022/10/04,07:30,0.583,0.843,0.538,1.047,0.745,0.339,0.597,0.562,��,5.8,��
2022/10/04,07:40,0.583,0.842,0.538,1.046,0.745,0.339,0.595,0.562,��,5.7,��
2022/10/04,07:50,0.582,0.841,0.539,1.047,0.744,0.339,0.595,0.561,��,7.4,��
2022/10/04,08:00,0.583,0.840,0.539,1.048,0.744,0.339,0.594,0.561,��,5.5,��
2022/10/04,08:10,0.584,0.840,0.540,1.047,0.743,0.340,0.595,0.559,��,5.4,��
2022/10/04,08:20,0.583,0.840,0.539,1.047,0.743,0.340,0.595,0.562,��,5.5,��
2022/10/04,08:30,0.586,0.843,0.539,1.047,0.741,0.340,0.594,0.561,��쐼,5.3,��
2022/10/04,08:40,0.585,0.841,0.537,1.047,0.742,0.340,0.595,0.561,��쐼,6.4,��
2022/10/04,08:50,0.584,0.842,0.537,1.048,0.745,0.340,0.596,0.559,��쐼,8.2,��
2022/10/04,09:00,0.584,0.842,0.538,1.047,0.745,0.340,0.596,0.560,��쐼,6.6,��
2022/10/04,09:10,0.586,0.841,0.540,1.047,0.746,0.340,0.596,0.558,��쐼,6.8,��
2022/10/04,09:20,0.585,0.841,0.539,1.046,0.744,0.340,0.596,0.559,��쐼,6.9,��
2022/10/04,09:30,0.586,0.840,0.538,1.049,0.746,0.341,0.596,0.561,��,6.5,��
2022/10/04,09:40,0.588,0.840,0.539,1.047,0.746,0.341,0.595,0.560,��,7.1,��
2022/10/04,09:50,0.585,0.841,0.539,1.047,0.745,0.340,0.596,0.559,��,5.0,��
2022/10/04,10:00,0.588,0.842,0.539,1.048,0.747,0.342,0.598,0.561,��,6.8,��
2022/10/04,10:10,0.585,0.843,0.538,1.048,0.746,0.340,0.598,0.562,��,6.6,��
2022/10/04,10:20,0.587,0.842,0.538,1.048,0.747,0.343,0.597,0.559,��,8.5,��
2022/10/04,10:30,0.588,0.843,0.538,1.048,0.748,0.341,0.597,0.561,��,7.9,��
2022/10/04,10:40,0.588,0.844,0.540,1.049,0.747,0.341,0.596,0.561,��,7.6,��
2022/10/04,10:50,0.587,0.846,0.539,1.049,0.747,0.340,0.595,0.561,��,5.9,��
2022/10/04,11:00,0.587,0.846,0.539,1.048,0.747,0.341,0.597,0.561,��,6.2,��
2022/10/04,11:10,0.588,0.844,0.538,1.048,0.747,0.341,0.597,0.560,��,6.0,��
2022/10/04,11:20,0.588,0.844,0.540,1.049,0.746,0.341,0.598,0.561,��쐼,4.6,��
2022/10/04,11:30,0.589,0.845,0.540,1.049,0.748,0.342,0.596,0.561,��,8.0,��
2022/10/04,11:40,0.588,0.844,0.539,1.049,0.749,0.344,0.597,0.561,��,6.9,��
2022/10/04,11:50,0.589,0.844,0.540,1.048,0.749,0.343,0.597,0.560,��,7.0,��
2022/10/04,12:00,0.589,0.844,0.542,1.049,0.749,0.343,0.597,0.560,�쐼,6.7,��
2022/10/04,12:10,0.589,0.845,0.538,1.051,0.748,0.343,0.597,0.561,��쐼,5.8,��
2022/10/04,12:20,0.588,0.846,0.542,1.051,0.747,0.343,0.597,0.560,��쐼,7.1,��
2022/10/04,12:30,0.589,0.844,0.539,1.050,0.750,0.344,0.596,0.560,��쐼,4.5,��
2022/10/04,12:40,0.590,0.845,0.541,1.050,0.750,0.343,0.598,0.561,��쐼,7.6,��
2022/10/04,12:50,0.589,0.846,0.539,1.051,0.750,0.344,0.597,0.562,��쐼,6.9,��
2022/10/04,13:00,0.589,0.848,0.541,1.052,0.749,0.344,0.599,0.562,��쐼,8.1,��
2022/10/04,13:10,0.591,0.846,0.541,1.053,0.752,0.343,0.597,0.562,��,9.6,��
2022/10/04,13:20,0.590,0.846,0.540,1.052,0.750,0.342,0.598,0.563,��쐼,6.8,��
2022/10/04,13:30,0.590,0.845,0.540,1.050,0.749,0.344,0.596,0.562,��쐼,7.5,��
2022/10/04,13:40,0.590,0.846,0.540,1.051,0.750,0.341,0.598,0.562,��쐼,7.3,��
2022/10/04,13:50,0.591,0.845,0.540,1.053,0.752,0.342,0.597,0.562,��,5.0,��
2022/10/04,14:00,0.590,0.846,0.541,1.052,0.752,0.342,0.597,0.563,��,4.8,��
2022/10/04,14:10,0.592,0.845,0.542,1.049,0.750,0.344,0.597,0.562,��쐼,4.4,��
2022/10/04,14:20,0.591,0.845,0.541,1.051,0.751,0.343,0.597,0.562,��쐼,3.8,��
2022/10/04,14:30,0.589,0.848,0.541,1.051,0.752,0.343,0.598,0.562,��,3.8,��
2022/10/04,14:40,0.592,0.845,0.540,1.054,0.750,0.343,0.597,0.562,��,4.1,��
2022/10/04,14:50,0.591,0.848,0.542,1.051,0.752,0.342,0.597,0.561,��,3.9,��
2022/10/04,15:00,0.590,0.846,0.542,1.052,0.750,0.341,0.596,0.561,��,3.6,��
2022/10/04,15:10,0.590,0.846,0.543,1.052,0.751,0.343,0.597,0.561,��,4.0,��
2022/10/04,15:20,0.592,0.850,0.541,1.052,0.750,0.342,0.597,0.560,��,4.4,��
2022/10/04,15:30,0.590,0.848,0.540,1.050,0.750,0.342,0.598,0.560,��,5.8,��
2022/10/04,15:40,0.591,0.845,0.542,1.050,0.750,0.341,0.597,0.562,��,6.7,��
2022/10/04,15:50,0.592,0.848,0.540,1.050,0.751,0.342,0.596,0.560,��,6.8,��
2022/10/04,16:00,0.591,0.850,0.541,1.053,0.751,0.343,0.597,0.562,��,6.5,��
2022/10/04,16:10,0.592,0.847,0.542,1.053,0.752,0.343,0.597,0.560,��,6.1,��
2022/10/04,16:20,0.592,0.848,0.542,1.053,0.751,0.345,0.597,0.561,��,4.9,��
2022/10/04,16:30,0.591,0.846,0.543,1.055,0.752,0.344,0.598,0.561,��,4.7,��
2022/10/04,16:40,0.591,0.848,0.543,1.052,0.753,0.345,0.598,0.562,��,4.1,�L
2022/10/04,16:50,0.592,0.849,0.543,1.052,0.753,0.343,0.598,0.564,��,5.0,��
2022/10/04,17:00,0.593,0.848,0.541,1.053,0.753,0.343,0.597,0.561,��,5.1,��
2022/10/04,17:10,0.591,0.850,0.542,1.054,0.752,0.343,0.598,0.563,��,4.8,��
2022/10/04,17:20,0.592,0.848,0.544,1.052,0.752,0.342,0.598,0.564,��,5.9,��
2022/10/04,17:30,0.591,0.847,0.543,1.053,0.753,0.343,0.597,0.563,��,6.8,��
2022/10/04,17:40,0.590,0.850,0.543,1.052,0.753,0.343,0.599,0.564,��,7.5,��
2022/10/04,17:50,0.591,0.849,0.544,1.052,0.753,0.343,0.598,0.564,��,7.2,��
2022/10/04,18:00,0.592,0.848,0.543,1.052,0.752,0.344,0.598,0.563,��,6.7,��
2022/10/04,18:10,0.590,0.848,0.543,1.053,0.753,0.344,0.599,0.563,��,6.6,��
2022/10/04,18:20,0.590,0.852,0.543,1.052,0.753,0.344,0.598,0.563,��,7.3,��
2022/10/04,18:30,0.592,0.850,0.543,1.054,0.751,0.343,0.599,0.565,��,7.3,��
2022/10/04,18:40,0.592,0.848,0.542,1.052,0.753,0.343,0.598,0.564,��,7.7,��
2022/10/04,18:50,0.589,0.848,0.543,1.053,0.754,0.344,0.598,0.564,��,8.3,��
2022/10/04,19:00,0.591,0.849,0.544,1.052,0.750,0.344,0.598,0.564,��,8.5,��
2022/10/04,19:10,0.590,0.851,0.545,1.053,0.753,0.345,0.600,0.563,��,9.0,��
2022/10/04,19:20,0.592,0.850,0.543,1.053,0.751,0.343,0.597,0.566,��,9.1,��
2022/10/04,19:30,0.590,0.850,0.544,1.053,0.751,0.343,0.598,0.563,��,8.1,��
2022/10/04,19:40,0.590,0.850,0.543,1.052,0.751,0.343,0.600,0.563,��,7.5,��
2022/10/04,19:50,0.590,0.849,0.543,1.055,0.751,0.344,0.599,0.563,��,8.6,��
2022/10/04,20:00,0.591,0.848,0.541,1.053,0.752,0.344,0.599,0.563,��,8.4,��
2022/10/04,20:10,0.588,0.850,0.544,1.054,0.751,0.344,0.599,0.563,��,8.3,��
2022/10/04,20:20,0.590,0.850,0.544,1.052,0.751,0.342,0.598,0.565,��,9.4,��
2022/10/04,20:30,0.590,0.850,0.543,1.055,0.751,0.343,0.599,0.564,��쐼,8.3,��
2022/10/04,20:40,0.590,0.849,0.543,1.053,0.754,0.343,0.597,0.564,��쐼,8.9,��
2022/10/04,20:50,0.590,0.849,0.543,1.054,0.752,0.343,0.600,0.564,��,9.9,��
2022/10/04,21:00,0.589,0.848,0.542,1.053,0.753,0.342,0.598,0.565,��,9.4,��
2022/10/04,21:10,0.590,0.849,0.543,1.055,0.752,0.342,0.600,0.565,��,9.2,��
2022/10/04,21:20,0.591,0.849,0.543,1.054,0.753,0.345,0.600,0.565,��,9.5,��
2022/10/04,21:30,0.590,0.849,0.543,1.053,0.753,0.343,0.600,0.564,��,9.9,��
2022/10/04,21:40,0.590,0.847,0.543,1.055,0.753,0.342,0.600,0.564,��,9.2,��
2022/10/04,21:50,0.589,0.848,0.543,1.053,0.753,0.343,0.599,0.565,��,8.5,��
2022/10/04,22:00,0.590,0.846,0.542,1.052,0.752,0.343,0.598,0.565,��,7.9,��
2022/10/04,22:10,0.590,0.848,0.542,1.055,0.752,0.343,0.600,0.564,��,6.3,��
2022/10/04,22:20,0.590,0.848,0.541,1.053,0.753,0.342,0.599,0.564,��쐼,5.2,��
2022/10/04,22:30,0.589,0.850,0.541,1.053,0.754,0.342,0.599,0.565,�쐼,5.4,��
2022/10/04,22:40,0.590,0.847,0.543,1.055,0.751,0.343,0.599,0.564,���쐼,4.2,��
2022/10/04,22:50,0.588,0.850,0.543,1.052,0.751,0.344,0.596,0.564,�쐼,2.9,��
2022/10/04,23:00,0.591,0.848,0.544,1.053,0.752,0.343,0.599,0.564,��쐼,2.8,��
2022/10/04,23:10,0.591,0.849,0.541,1.053,0.751,0.342,0.599,0.566,�쐼,4.6,��
2022/10/04,23:20,0.592,0.846,0.544,1.053,0.750,0.343,0.599,0.563,���쐼,4.8,��
2022/10/04,23:30,0.593,0.849,0.542,1.055,0.752,0.343,0.598,0.565,���쐼,4.0,��
2022/10/04,23:40,0.590,0.850,0.543,1.053,0.751,0.345,0.599,0.564,���쐼,2.9,��
2022/10/04,23:50,0.591,0.850,0.543,1.053,0.753,0.343,0.597,0.564,�k��,1.2,��
